[Date Prev][Date Next][Thread Prev][Thread Next] - [Date Index][Thread Index][Author Index]

2 Line ISS Keps 1-18



ISS
1 25544U 98067A   05018.40127315  .00024195  00000-0  20161-3 0  6145
2 25544  51.6472 306.7126 0009650   6.0548 134.6020 15.69906396352139
----
Via the sarex mailing list at AMSAT.ORG courtesy of AMSAT-NA.
To unsubscribe, send "unsubscribe sarex" to Majordomo@amsat.org



AMSAT Top AMSAT Home